Photometre #383[NE_1.6] Valladolid AOT

File : 20190924_383.hum

24/09/2019,06:56:03,TEMP=13.6,BA=5.64,STAT.A=24.0,ExtBa=13.36
24/09/2019,06:59:29,TEMP=14.0,BA=5.64,STAT.A=23.5,ExtBa=13.20
24/09/2019,07:03:31,TEMP=14.0,BA=5.60,STAT.A=23.5,ExtBa=13.16
24/09/2019,07:08:18,TEMP=14.0,BA=5.60,STAT.A=24.0,ExtBa=13.16
24/09/2019,07:14:04,TEMP=14.0,BA=5.60,STAT.A=24.0,ExtBa=13.19
24/09/2019,07:21:11,TEMP=14.0,BA=5.64,STAT.A=24.0,ExtBa=13.23
24/09/2019,07:34:10,TEMP=14.0,BA=5.60,STAT.B=24.0,ExtBa=13.31
24/09/2019,07:36:02,TEMP=14.4,BA=5.60,STAT.A=23.5,ExtBa=13.15
24/09/2019,07:39:17,TEMP=14.1,BA=5.60,STAT.A=23.5,ExtBa=13.12
24/09/2019,07:44:43,TEMP=13.6,BA=5.60,STAT.A=24.0,ExtBa=13.17
24/09/2019,07:50:54,TEMP=13.6,BA=5.60,STAT.A=24.0,ExtBa=13.20
24/09/2019,07:57:59,TEMP=13.9,BA=5.60,STAT.F,ExtBa=13.21
24/09/2019,08:06:15,TEMP=14.3,BA=5.60,STAT.A=24.0,ExtBa=13.25
24/09/2019,08:15:58,TEMP=14.6,BA=5.60,STAT.A=24.0,ExtBa=13.28
24/09/2019,08:27:38,TEMP=15.3,BA=5.60,STAT.A=24.0,ExtBa=13.30
24/09/2019,08:41:59,TEMP=16.2,BA=5.60,STAT.A=24.0,ExtBa=13.33
24/09/2019,09:00:09,TEMP=16.7,BA=5.60,STAT.B=24.0,ExtBa=13.34
24/09/2019,09:11:34,TEMP=17.3,BA=5.64,STAT.F,ExtBa=13.30
24/09/2019,09:26:34,STAT.X
24/09/2019,09:41:33,TEMP=19.0,BA=5.60,STAT.D=24.0,ExtBa=13.15
24/09/2019,09:56:33,TEMP=19.2,BA=5.60,STAT.D=24.0,ExtBa=13.21
24/09/2019,10:11:34,TEMP=21.0,BA=5.60,STAT.F,ExtBa=13.24
24/09/2019,10:26:33,TEMP=20.6,BA=5.60,STAT.D=24.5,ExtBa=13.25
24/09/2019,10:41:33,TEMP=21.1,BA=5.60,STAT.D=24.5,ExtBa=13.26
24/09/2019,10:56:32,TEMP=22.2,BA=5.60,STAT.D=24.5,ExtBa=13.27
24/09/2019,11:11:35,TEMP=22.2,BA=5.60,STAT.F,ExtBa=13.27
24/09/2019,11:26:33,TEMP=22.2,BA=5.60,STAT.D=24.5,ExtBa=13.27
24/09/2019,11:41:33,TEMP=23.3,BA=5.60,STAT.D=24.5,ExtBa=13.27
24/09/2019,11:56:33,TEMP=24.4,BA=5.60,STAT.D=24.5,ExtBa=13.28
24/09/2019,12:11:35,TEMP=23.4,BA=5.60,STAT.F,ExtBa=13.27
24/09/2019,12:26:33,TEMP=23.3,BA=5.60,STAT.D=24.5,ExtBa=13.27
24/09/2019,12:41:33,TEMP=23.7,BA=5.60,STAT.D=24.5,ExtBa=13.27
24/09/2019,12:56:33,TEMP=23.0,BA=5.60,STAT.D=24.5,ExtBa=13.27
24/09/2019,13:11:33,TEMP=23.7,BA=5.60,STAT.F,ExtBa=13.28
24/09/2019,13:26:33,TEMP=23.4,BA=5.60,STAT.D=24.5,ExtBa=13.27
24/09/2019,13:41:33,TEMP=22.9,BA=5.60,STAT.D=24.5,ExtBa=13.27
24/09/2019,13:56:33,TEMP=22.9,BA=5.60,STAT.D=24.5,ExtBa=13.27
24/09/2019,14:11:34,TEMP=23.6,BA=5.60,STAT.F,ExtBa=13.26
24/09/2019,14:26:33,TEMP=23.2,BA=5.60,STAT.D=24.5,ExtBa=13.26
24/09/2019,14:41:33,TEMP=23.4,BA=5.60,STAT.D=24.5,ExtBa=13.26
24/09/2019,14:56:34,STAT.X
24/09/2019,15:11:34,TEMP=25.4,BA=5.60,STAT.F,ExtBa=13.17
24/09/2019,15:22:59,TEMP=24.6,BA=5.56,STAT.B=24.5,ExtBa=13.01
24/09/2019,15:41:09,TEMP=24.0,BA=5.60,STAT.A=24.5,ExtBa=13.17
24/09/2019,15:55:30,TEMP=25.1,BA=5.60,STAT.A=24.0,ExtBa=13.18
24/09/2019,16:07:10,TEMP=25.3,BA=5.60,STAT.A=24.5,ExtBa=13.19
24/09/2019,16:16:53,TEMP=24.8,BA=5.60,STAT.A=24.5,ExtBa=13.18
24/09/2019,16:25:07,TEMP=24.2,BA=5.60,STAT.F,ExtBa=13.15
24/09/2019,16:39:21,TEMP=24.4,BA=5.56,STAT.A=24.0,ExtBa=12.92
24/09/2019,16:41:14,TEMP=24.7,BA=5.56,STAT.A=24.0,ExtBa=12.93
24/09/2019,16:43:49,TEMP=24.7,BA=5.56,STAT.A=24.0,ExtBa=12.96
24/09/2019,16:48:38,TEMP=24.8,BA=5.56,STAT.A=24.0,ExtBa=13.03
24/09/2019,16:52:56,TEMP=24.9,BA=5.56,STAT.B=24.0,ExtBa=13.03
24/09/2019,17:01:55,TEMP=25.0,BA=5.56,STAT.A=24.0,ExtBa=12.93
24/09/2019,17:09:02,TEMP=24.2,BA=5.56,STAT.A=24.5,ExtBa=13.06
24/09/2019,17:14:48,TEMP=23.9,BA=5.56,STAT.A=24.5,ExtBa=13.05
24/09/2019,17:19:35,TEMP=23.6,BA=5.56,STAT.A=24.5,ExtBa=13.03
24/09/2019,17:23:37,TEMP=23.5,BA=5.56,STAT.A=24.5,ExtBa=13.01
24/09/2019,17:27:03,TEMP=23.6,BA=5.56,STAT.A=24.5,ExtBa=13.00